| time (UTC) | temp F | wind direction | speed MPH | gust MPH | rain 1hr in | rain 24hr in | rain mn in | humidity % | barometer mb |
| 20260509061602 | 53 | 176 | 0.0 | 3.0 | 0.00 | 0.05 | 0.00 | 85 | 1009.6 |
| 20260509061514 | 61 | 145 | 0.0 | 2.0 | 0.00 | 0.00 | 0.00 | 90 | 1014.0 |
| 20260509060059 | 52 | 176 | 0.0 | 1.0 | 0.00 | 0.05 | 0.00 | 85 | 1009.7 |
| 20260509060007 | 61 | 124 | 0.0 | 6.0 | 0.00 | 0.00 | 0.00 | 92 | 1014.0 |
| 20260509054559 | 52 | 177 | 1.0 | 4.0 | 0.00 | 0.05 | 0.00 | 85 | 1009.7 |
| 20260509054504 | 61 | 113 | 0.0 | 2.0 | 0.00 | 0.00 | 0.00 | 90 | 1014.0 |
| 20260509053056 | 52 | 187 | 0.0 | 3.0 | 0.00 | 0.05 | 0.00 | 85 | 1009.9 |
| 20260509053011 | 61 | 135 | 0.0 | 5.0 | 0.00 | 0.00 | 0.00 | 90 | 1014.0 |
| 20260509051555 | 52 | 186 | 1.0 | 3.0 | 0.00 | 0.05 | 0.00 | 85 | 1009.7 |
| 20260509051504 | 61 | 125 | 0.0 | 4.0 | 0.00 | 0.00 | 0.00 | 90 | 1014.1 |
| 20260509050059 | 52 | 187 | 2.0 | 3.0 | 0.00 | 0.05 | 0.00 | 85 | 1009.7 |
| 20260509050005 | 61 | 155 | 0.0 | 0.0 | 0.00 | 0.00 | 0.00 | 90 | 1014.0 |
| 20260509044548 | 52 | 191 | 0.0 | 0.0 | 0.00 | 0.05 | 0.05 | 85 | 1009.8 |
| 20260509044503 | 62 | 123 | 1.0 | 5.0 | 0.00 | 0.00 | 0.00 | 89 | 1014.0 |
| 20260509043048 | 53 | 194 | 0.0 | 0.0 | 0.00 | 0.05 | 0.05 | 85 | 1009.7 |
| 20260509043002 | 62 | 163 | 0.0 | 2.0 | 0.00 | 0.00 | 0.00 | 89 | 1013.8 |
| 20260509041549 | 54 | 194 | 0.0 | 2.0 | 0.00 | 0.05 | 0.05 | 85 | 1009.7 |
| 20260509041502 | 62 | 148 | 0.0 | 3.0 | 0.00 | 0.00 | 0.00 | 88 | 1013.6 |
| 20260509040044 | 54 | 195 | 1.0 | 3.0 | 0.00 | 0.05 | 0.05 | 85 | 1009.8 |
| 20260509040001 | 62 | 120 | 0.0 | 4.0 | 0.00 | 0.00 | 0.00 | 88 | 1013.5 |
| 20260509034544 | 54 | 207 | 1.0 | 4.0 | 0.00 | 0.05 | 0.05 | 85 | 1009.9 |
| 20260509034501 | 63 | 152 | 0.0 | 4.0 | 0.00 | 0.00 | 0.00 | 87 | 1013.4 |
| 20260509033100 | 63 | 144 | 0.0 | 3.0 | 0.00 | 0.00 | 0.00 | 86 | 1013.4 |
| 20260509033059 | 54 | 168 | 2.0 | 5.0 | 0.00 | 0.05 | 0.05 | 85 | 1009.8 |
| 20260509031603 | 64 | 130 | 0.0 | 5.0 | 0.00 | 0.00 | 0.00 | 85 | 1013.4 |
| 20260509031544 | 54 | 176 | 2.0 | 4.0 | 0.00 | 0.05 | 0.05 | 85 | 1009.8 |
| 20260509030059 | 64 | 155 | 0.0 | 0.0 | 0.00 | 0.00 | 0.00 | 84 | 1013.2 |
| 20260509030044 | 55 | 176 | 0.0 | 5.0 | 0.00 | 0.05 | 0.05 | 85 | 1009.7 |
| 20260509024559 | 65 | 143 | 0.0 | 2.0 | 0.00 | 0.00 | 0.00 | 84 | 1012.9 |
| 20260509024545 | 55 | 187 | 1.0 | 2.0 | 0.00 | 0.05 | 0.05 | 85 | 1009.4 |
| 20260509023058 | 65 | 143 | 0.0 | 4.0 | 0.00 | 0.00 | 0.00 | 82 | 1012.7 |
| 20260509023042 | 56 | 213 | 1.0 | 4.0 | 0.00 | 0.05 | 0.05 | 85 | 1009.3 |
| 20260509021558 | 66 | 117 | 1.0 | 7.0 | 0.00 | 0.00 | 0.00 | 81 | 1012.5 |
| 20260509021542 | 57 | 187 | 1.0 | 2.0 | 0.00 | 0.05 | 0.05 | 85 | 1009.1 |
| 20260509020057 | 66 | 138 | 0.0 | 5.0 | 0.00 | 0.00 | 0.00 | 80 | 1012.6 |
| 20260509020041 | 58 | 206 | 3.0 | 4.0 | 0.00 | 0.05 | 0.05 | 85 | 1009.0 |
| 20260509014557 | 67 | 148 | 0.0 | 7.0 | 0.00 | 0.00 | 0.00 | 80 | 1012.6 |
| 20260509014541 | 59 | 295 | 0.0 | 1.0 | 0.00 | 0.05 | 0.05 | 85 | 1008.9 |
| 20260509013057 | 67 | 130 | 0.0 | 9.0 | 0.00 | 0.00 | 0.00 | 78 | 1012.6 |
| 20260509013046 | 60 | 295 | 0.0 | 0.0 | 0.00 | 0.05 | 0.05 | 83 | 1008.8 |
| 20260509011605 | 68 | 129 | 0.0 | 8.0 | 0.00 | 0.00 | 0.00 | 76 | 1012.6 |
| 20260509011540 | 61 | 295 | 0.0 | 0.0 | 0.00 | 0.05 | 0.05 | 80 | 1008.6 |
| 20260509010055 | 69 | 174 | 1.0 | 8.0 | 0.00 | 0.00 | 0.00 | 76 | 1012.7 |
| 20260509010039 | 63 | 295 | 0.0 | 0.0 | 0.00 | 0.05 | 0.05 | 78 | 1008.5 |
| 20260509004555 | 70 | 147 | 0.0 | 9.0 | 0.00 | 0.00 | 0.00 | 75 | 1012.6 |
| 20260509004552 | 64 | 295 | 0.0 | 2.0 | 0.00 | 0.05 | 0.05 | 76 | 1008.5 |
| 20260509003054 | 70 | 144 | 1.0 | 7.0 | 0.00 | 0.00 | 0.00 | 74 | 1012.5 |
| 20260509003041 | 64 | 297 | 0.0 | 3.0 | 0.00 | 0.05 | 0.05 | 75 | 1008.4 |
| 20260509001553 | 70 | 174 | 2.0 | 9.0 | 0.00 | 0.00 | 0.00 | 73 | 1012.7 |
| 20260509001538 | 65 | 307 | 2.0 | 4.0 | 0.00 | 0.05 | 0.05 | 75 | 1008.2 |
| 20260509000052 | 71 | 145 | 0.0 | 9.0 | 0.00 | 0.00 | 0.00 | 72 | 1012.6 |
| 20260509000043 | 65 | 318 | 1.0 | 6.0 | 0.00 | 0.05 | 0.05 | 76 | 1008.1 |
| 20260508234555 | 71 | 189 | 0.0 | 3.0 | 0.00 | 0.00 | 0.00 | 72 | 1012.5 |
| 20260508234537 | 65 | 254 | 3.0 | 6.0 | 0.00 | 0.05 | 0.05 | 76 | 1007.9 |
| 20260508233057 | 72 | 163 | 3.0 | 10.0 | 0.00 | 0.00 | 0.00 | 70 | 1012.5 |
| 20260508233033 | 64 | 45 | 0.0 | 6.0 | 0.00 | 0.05 | 0.05 | 79 | 1008.3 |
| 20260508231622 | 73 | 143 | 0.0 | 0.0 | 0.00 | 0.00 | 0.00 | 70 | 1012.7 |
| 20260508231534 | 64 | 338 | 1.0 | 4.0 | 0.00 | 0.05 | 0.05 | 81 | 1008.5 |
| 20260508230057 | 73 | 158 | 0.0 | 5.0 | 0.00 | 0.00 | 0.00 | 70 | 1013.0 |
| 20260508230029 | 63 | 231 | 2.0 | 4.0 | 0.00 | 0.05 | 0.05 | 82 | 1008.6 |
| 20260508224547 | 62 | 321 | 3.0 | 6.0 | 0.00 | 0.05 | 0.05 | 83 | 1008.5 |
| 20260508224544 | 73 | 178 | 0.0 | 2.0 | 0.00 | 0.00 | 0.00 | 69 | 1013.2 |
| 20260508223045 | 74 | 149 | 0.0 | 2.0 | 0.00 | 0.00 | 0.00 | 69 | 1013.2 |
| 20260508223027 | 61 | 274 | 1.0 | 4.0 | 0.00 | 0.05 | 0.05 | 85 | 1008.5 |
| 20260508221541 | 73 | 184 | 0.0 | 5.0 | 0.00 | 0.00 | 0.00 | 69 | 1013.4 |
| 20260508221532 | 60 | 272 | 1.0 | 3.0 | 0.00 | 0.05 | 0.05 | 85 | 1008.3 |
| 20260508220043 | 74 | 146 | 0.0 | 4.0 | 0.00 | 0.00 | 0.00 | 68 | 1013.4 |
| 20260508220031 | 59 | 191 | 3.0 | 6.0 | 0.01 | 0.05 | 0.05 | 84 | 1008.3 |
| 20260508214545 | 74 | 130 | 0.0 | 0.0 | 0.00 | 0.00 | 0.00 | 68 | 1013.5 |
| 20260508214535 | 58 | 145 | 6.0 | 12.0 | 0.02 | 0.05 | 0.05 | 85 | 1008.2 |
| 20260508213032 | 74 | 148 | 0.0 | 3.0 | 0.00 | 0.00 | 0.00 | 69 | 1013.7 |
| 20260508213030 | 58 | 89 | 4.0 | 8.0 | 0.04 | 0.05 | 0.05 | 85 | 1009.1 |
| 20260508211531 | 72 | 136 | 0.0 | 0.0 | 0.00 | 0.00 | 0.00 | 72 | 1013.8 |
| 20260508211523 | 58 | 163 | 0.0 | 2.0 | 0.04 | 0.05 | 0.05 | 85 | 1009.5 |
| 20260508210026 | 72 | 153 | 0.0 | 3.0 | 0.00 | 0.00 | 0.00 | 71 | 1014.0 |
| 20260508210020 | 59 | 335 | 1.0 | 3.0 | 0.04 | 0.04 | 0.04 | 84 | 1010.0 |
| 20260508204526 | 72 | 161 | 0.0 | 8.0 | 0.00 | 0.00 | 0.00 | 71 | 1014.0 |
| 20260508204521 | 60 | 359 | 0.0 | 1.0 | 0.02 | 0.02 | 0.02 | 85 | 1010.1 |
| 20260508203026 | 71 | 144 | 0.0 | 7.0 | 0.00 | 0.00 | 0.00 | 74 | 1014.3 |
| 20260508203018 | 60 | 359 | 0.0 | 6.0 | 0.01 | 0.01 | 0.01 | 85 | 1010.1 |
| 20260508201522 | 71 | 138 | 0.0 | 4.0 | 0.00 | 0.00 | 0.00 | 75 | 1014.5 |
| 20260508201517 | 60 | 359 | 2.0 | 6.0 | 0.01 | 0.01 | 0.01 | 84 | 1010.0 |
| 20260508200030 | 61 | 359 | 2.0 | 4.0 | 0.00 | 0.00 | 0.00 | 81 | 1010.1 |
| 20260508200019 | 72 | 144 | 0.0 | 3.0 | 0.00 | 0.00 | 0.00 | 74 | 1014.6 |
| 20260508194517 | 71 | 150 | 0.0 | 2.0 | 0.00 | 0.00 | 0.00 | 74 | 1014.8 |
| 20260508194515 | 61 | 32 | 2.0 | 4.0 | 0.00 | 0.00 | 0.00 | 77 | 1010.0 |
| 20260508193016 | 70 | 150 | 0.0 | 0.0 | 0.00 | 0.00 | 0.00 | 77 | 1014.9 |
| 20260508193014 | 62 | 339 | 0.0 | 3.0 | 0.00 | 0.00 | 0.00 | 75 | 1010.2 |
| 20260508191529 | 69 | 138 | 0.0 | 1.0 | 0.00 | 0.00 | 0.00 | 77 | 1015.1 |
| 20260508191514 | 62 | 287 | 1.0 | 4.0 | 0.00 | 0.00 | 0.00 | 74 | 1009.7 |
| 20260508190018 | 62 | 175 | 0.0 | 6.0 | 0.00 | 0.00 | 0.00 | 73 | 1009.9 |
| 20260508190010 | 68 | 149 | 0.0 | 0.0 | 0.00 | 0.00 | 0.00 | 78 | 1015.2 |
| 20260508184522 | 62 | 339 | 0.0 | 4.0 | 0.00 | 0.00 | 0.00 | 74 | 1009.7 |
| 20260508184508 | 68 | 149 | 0.0 | 0.0 | 0.00 | 0.00 | 0.00 | 78 | 1015.5 |
| 20260508183012 | 62 | 129 | 1.0 | 3.0 | 0.00 | 0.00 | 0.00 | 70 | 1009.7 |
| 20260508183004 | 67 | 141 | 0.0 | 0.0 | 0.00 | 0.00 | 0.00 | 81 | 1015.7 |
| 20260508181513 | 62 | 163 | 4.0 | 7.0 | 0.00 | 0.00 | 0.00 | 70 | 1010.1 |
| 20260508181501 | 66 | 142 | 0.0 | 0.0 | 0.00 | 0.00 | 0.00 | 82 | 1015.7 |
| 20260508180128 | 65 | 138 | 0.0 | 0.0 | 0.00 | 0.00 | 0.00 | 83 | 1015.7 |
| 20260508180009 | 62 | 136 | 1.0 | 5.0 | 0.00 | 0.00 | 0.00 | 69 | 1010.1 |
| 20260508174611 | 65 | 130 | 0.0 | 0.0 | 0.00 | 0.00 | 0.00 | 84 | 1016.0 |
| 20260508174508 | 61 | 191 | 2.0 | 5.0 | 0.00 | 0.00 | 0.00 | 73 | 1009.9 |
| 20260508173054 | 64 | 131 | 0.0 | 0.0 | 0.00 | 0.00 | 0.00 | 85 | 1015.7 |
| 20260508173007 | 61 | 54 | 3.0 | 5.0 | 0.00 | 0.00 | 0.00 | 72 | 1009.7 |
| 20260508171552 | 63 | 131 | 0.0 | 0.0 | 0.00 | 0.00 | 0.00 | 86 | 1015.8 |
| 20260508171514 | 61 | 345 | 2.0 | 6.0 | 0.00 | 0.00 | 0.00 | 71 | 1009.8 |
| 20260508170053 | 63 | 132 | 0.0 | 0.0 | 0.00 | 0.00 | 0.00 | 86 | 1015.8 |
| 20260508170007 | 62 | 359 | 5.0 | 8.0 | 0.00 | 0.00 | 0.00 | 69 | 1010.1 |
| 20260508164557 | 63 | 132 | 0.0 | 0.0 | 0.00 | 0.00 | 0.00 | 86 | 1015.9 |
| 20260508164506 | 62 | 52 | 3.0 | 12.0 | 0.00 | 0.00 | 0.00 | 68 | 1010.7 |
| 20260508163049 | 63 | 135 | 0.0 | 0.0 | 0.00 | 0.00 | 0.00 | 87 | 1015.8 |
| 20260508163004 | 62 | 235 | 2.0 | 11.0 | 0.00 | 0.00 | 0.00 | 67 | 1011.4 |
| 20260508161550 | 62 | 139 | 0.0 | 0.0 | 0.00 | 0.00 | 0.00 | 87 | 1015.8 |
| 20260508161501 | 61 | 303 | 3.0 | 10.0 | 0.00 | 0.00 | 0.00 | 67 | 1011.0 |
| 20260508160101 | 61 | 235 | 5.0 | 9.0 | 0.00 | 0.00 | 0.00 | 68 | 1010.4 |
| 20260508160047 | 62 | 139 | 0.0 | 0.0 | 0.00 | 0.00 | 0.00 | 88 | 1015.7 |
| 20260508154557 | 60 | 212 | 4.0 | 9.0 | 0.00 | 0.00 | 0.00 | 69 | 1010.2 |
| 20260508154546 | 62 | 139 | 0.0 | 0.0 | 0.00 | 0.00 | 0.00 | 89 | 1015.7 |
| 20260508153056 | 60 | 128 | 5.0 | 12.0 | 0.00 | 0.00 | 0.00 | 67 | 1010.2 |
| 20260508153045 | 62 | 140 | 0.0 | 0.0 | 0.00 | 0.00 | 0.00 | 89 | 1015.8 |
| 20260508151555 | 60 | 205 | 5.0 | 9.0 | 0.00 | 0.00 | 0.00 | 68 | 1010.3 |
| 20260508151544 | 62 | 140 | 0.0 | 0.0 | 0.00 | 0.00 | 0.00 | 90 | 1015.8 |
| 20260508150118 | 60 | 359 | 5.0 | 10.0 | 0.00 | 0.00 | 0.00 | 68 | 1010.4 |
| 20260508150043 | 61 | 140 | 0.0 | 0.0 | 0.00 | 0.00 | 0.00 | 90 | 1015.8 |
| 20260508144558 | 60 | 248 | 7.0 | 12.0 | 0.00 | 0.00 | 0.00 | 68 | 1010.2 |
| 20260508144543 | 61 | 140 | 0.0 | 0.0 | 0.00 | 0.00 | 0.00 | 90 | 1015.9 |
| 20260508143048 | 60 | 245 | 11.0 | 19.0 | 0.00 | 0.00 | 0.00 | 67 | 1010.2 |
| 20260508143041 | 61 | 140 | 0.0 | 0.0 | 0.00 | 0.00 | 0.00 | 90 | 1015.8 |
| 20260508141541 | 61 | 138 | 0.0 | 0.0 | 0.00 | 0.00 | 0.00 | 90 | 1015.7 |
| 20260508141539 | 59 | 181 | 6.0 | 13.0 | 0.00 | 0.00 | 0.00 | 68 | 1010.3 |
| 20260508140044 | 59 | 206 | 4.0 | 10.0 | 0.00 | 0.00 | 0.00 | 69 | 1010.7 |
| 20260508140041 | 61 | 138 | 0.0 | 2.0 | 0.00 | 0.00 | 0.00 | 90 | 1015.5 |
| 20260508134542 | 61 | 137 | 0.0 | 0.0 | 0.00 | 0.00 | 0.00 | 90 | 1015.6 |
| 20260508134538 | 58 | 193 | 3.0 | 8.0 | 0.00 | 0.00 | 0.00 | 70 | 1010.7 |
| 20260508133042 | 57 | 210 | 2.0 | 10.0 | 0.00 | 0.00 | 0.00 | 72 | 1010.6 |
| 20260508131542 | 61 | 137 | 0.0 | 0.0 | 0.00 | 0.00 | 0.00 | 90 | 1015.5 |
| 20260508131537 | 56 | 156 | 4.0 | 8.0 | 0.00 | 0.00 | 0.00 | 74 | 1010.3 |
| 20260508130037 | 61 | 138 | 0.0 | 0.0 | 0.00 | 0.00 | 0.00 | 90 | 1015.4 |
| 20260508124536 | 61 | 132 | 0.0 | 4.0 | 0.00 | 0.00 | 0.00 | 89 | 1015.2 |
| 20260508123036 | 61 | 96 | 0.0 | 0.0 | 0.00 | 0.00 | 0.00 | 89 | 1015.2 |
| 20260508121540 | 61 | 106 | 0.0 | 3.0 | 0.00 | 0.00 | 0.00 | 89 | 1015.2 |
| 20260508121534 | 55 | 148 | 0.0 | 3.0 | 0.00 | 0.00 | 0.00 | 77 | 1010.2 |
| 20260508120040 | 61 | 126 | 0.0 | 0.0 | 0.00 | 0.00 | 0.00 | 89 | 1015.1 |
| 20260508120034 | 56 | 134 | 3.0 | 5.0 | 0.00 | 0.00 | 0.00 | 77 | 1010.1 |
| 20260508114536 | 56 | 206 | 0.0 | 2.0 | 0.00 | 0.00 | 0.00 | 74 | 1010.5 |
| 20260508114533 | 61 | 128 | 0.0 | 0.0 | 0.00 | 0.00 | 0.00 | 89 | 1015.2 |
| 20260508113046 | 57 | 343 | 1.0 | 3.0 | 0.00 | 0.00 | 0.00 | 70 | 1010.2 |
| 20260508113039 | 61 | 138 | 0.0 | 0.0 | 0.00 | 0.00 | 0.00 | 89 | 1015.1 |
| 20260508111540 | 61 | 128 | 0.0 | 0.0 | 0.00 | 0.00 | 0.00 | 89 | 1015.0 |
| 20260508111533 | 57 | 310 | 0.0 | 4.0 | 0.00 | 0.00 | 0.00 | 67 | 1010.4 |
| 20260508110032 | 57 | 354 | 2.0 | 4.0 | 0.00 | 0.00 | 0.00 | 67 | 1010.2 |
| 20260508110030 | 62 | 135 | 0.0 | 3.0 | 0.00 | 0.00 | 0.00 | 89 | 1014.8 |
| 20260508104537 | 57 | 214 | 1.0 | 8.0 | 0.00 | 0.00 | 0.00 | 67 | 1009.7 |
| 20260508104530 | 62 | 135 | 0.0 | 0.0 | 0.00 | 0.00 | 0.00 | 89 | 1014.9 |
| 20260508103031 | 56 | 193 | 2.0 | 8.0 | 0.00 | 0.00 | 0.00 | 70 | 1009.6 |
| 20260508103028 | 62 | 136 | 0.0 | 0.0 | 0.00 | 0.00 | 0.00 | 89 | 1014.8 |
| 20260508101536 | 54 | 181 | 1.0 | 3.0 | 0.00 | 0.00 | 0.00 | 77 | 1009.7 |
| 20260508101528 | 62 | 110 | 0.0 | 0.0 | 0.00 | 0.00 | 0.00 | 89 | 1015.0 |
| 20260508100036 | 53 | 36 | 0.0 | 2.0 | 0.00 | 0.00 | 0.00 | 80 | 1009.6 |
| 20260508100027 | 61 | 102 | 0.0 | 0.0 | 0.00 | 0.00 | 0.00 | 89 | 1015.0 |
| 20260508094528 | 54 | 36 | 0.0 | 3.0 | 0.00 | 0.00 | 0.00 | 80 | 1009.7 |
| 20260508094526 | 61 | 159 | 0.0 | 0.0 | 0.00 | 0.00 | 0.00 | 89 | 1014.8 |
| 20260508093027 | 54 | 36 | 0.0 | 3.0 | 0.00 | 0.00 | 0.00 | 78 | 1009.8 |
| 20260508093025 | 61 | 159 | 0.0 | 0.0 | 0.00 | 0.00 | 0.00 | 89 | 1014.9 |
| 20260508091527 | 54 | 204 | 0.0 | 2.0 | 0.00 | 0.00 | 0.00 | 77 | 1009.8 |
| 20260508091524 | 61 | 151 | 0.0 | 0.0 | 0.00 | 0.00 | 0.00 | 89 | 1015.0 |
| 20260508090025 | 55 | 204 | 1.0 | 2.0 | 0.00 | 0.00 | 0.00 | 72 | 1009.8 |
| 20260508090021 | 61 | 118 | 0.0 | 0.0 | 0.00 | 0.00 | 0.00 | 89 | 1015.1 |
| 20260508084520 | 61 | 122 | 0.0 | 0.0 | 0.00 | 0.00 | 0.00 | 89 | 1015.2 |
| 20260508083021 | 61 | 113 | 0.0 | 0.0 | 0.00 | 0.00 | 0.00 | 89 | 1015.4 |
| 20260508083017 | 56 | 116 | 0.0 | 2.0 | 0.00 | 0.00 | 0.00 | 69 | 1009.8 |
| 20260508081519 | 61 | 136 | 0.0 | 0.0 | 0.00 | 0.00 | 0.00 | 89 | 1015.6 |
| 20260508081517 | 56 | 226 | 1.0 | 7.0 | 0.00 | 0.00 | 0.00 | 68 | 1010.0 |
| 20260508080016 | 61 | 148 | 0.0 | 0.0 | 0.00 | 0.00 | 0.00 | 89 | 1015.7 |
| 20260508074517 | 61 | 148 | 0.0 | 0.0 | 0.00 | 0.00 | 0.00 | 89 | 1015.6 |
| 20260508073017 | 61 | 146 | 0.0 | 2.0 | 0.00 | 0.00 | 0.00 | 89 | 1015.6 |
| 20260508073010 | 56 | 210 | 4.0 | 9.0 | 0.00 | 0.00 | 0.00 | 69 | 1010.5 |
| 20260508071515 | 61 | 146 | 0.0 | 4.0 | 0.00 | 0.00 | 0.00 | 89 | 1015.7 |
| 20260508071508 | 56 | 185 | 4.0 | 7.0 | 0.00 | 0.00 | 0.00 | 68 | 1010.7 |
| 20260508070011 | 61 | 151 | 0.0 | 3.0 | 0.00 | 0.00 | 0.00 | 89 | 1015.7 |
| 20260508070005 | 56 | 185 | 4.0 | 7.0 | 0.00 | 0.00 | 0.00 | 67 | 1010.8 |
| 20260508064515 | 61 | 142 | 1.0 | 5.0 | 0.00 | 0.00 | 0.00 | 89 | 1015.6 |
| 20260508064502 | 57 | 222 | 2.0 | 8.0 | 0.00 | 0.00 | 0.00 | 67 | 1011.0 |
| 20260508063059 | 57 | 174 | 3.0 | 8.0 | 0.00 | 0.00 | 0.00 | 66 | 1011.1 |
| 20260508063011 | 61 | 142 | 0.0 | 6.0 | 0.00 | 0.00 | 0.00 | 89 | 1015.6 |